Location: Fluertsh�userhof
(48.7537°N, 10.3850°E)
Time: 15:47:14
(UTC+00:00)

Okean 2 Rocket - Pass Details

Date: 18 September 2020
Orbit: 616 x 642 km, 82.5° (Epoch: 23 October)

Event Time Altitude Azimuth Distance (km) Brightness Sun altitude
Rises 18:03:34 0° 157° (SSE) 2,934 6.2 -7.3°
Reaches altitude 10° 18:06:04 10° 145° (SE) 2,027 5.3 -7.7°
Maximum altitude 18:09:49 27° 88° (E) 1,240 4.1 -8.3°
Drops below altitude 10° 18:13:35 10° 32° (NNE) 2,030 5.5 -8.9°
Sets 18:16:05 0° 20° (NNE) 2,939 6.5 -9.3°
